Погода Балкашино

Поиск расширенной информации на нашем сайте:

Полезная информация:

Новости сайта



02.01.2020
Опубликован Долгосрочный прогноз погоды по городам России и ближнего зарубежья на январь 2020 года.
Карты: Прогноз на январь и февраль 2020 года, Сравнение прогнозируемой аномалии приземной температуры воздуха на январь 2020 года по разным моделям.




Погода Балкашино - сегодня

Время (UTC), дата Ветер
(°,м/с) 
Видим.   Явления Облачность Т
(°С)
Тd
(°С)
f(%) Тe
(°С)
Pmin
(гПа)
dP
(гПа)
Po
(мм)
O2
(г/м3)
Тmin Tmax R s Состояние
почвы
12 22.10.21 230 (ЮЗ) 9{17}  2000 м  дымка{ливн. осадки}  10/10 600 м кучево-дожд. 
[Cb cap]
+0 -0.3 98 -5  1014.5  1.1  724  292           
15 22.10.21 210 (ЮЗ) н/о  слаб. ливневой дождь  10/10 600 м кучево-дожд. 
[Cb cap]
+0.9 +0.4 96 -2  1016  1.6  725  291    +0.9       
18 22.10.21 220 (ЮЗ) н/о  дымка{ливн. осадки}  10/10 600 м кучево-дожд. 
[Cb cap]
+2.3 +2 98 -1  1016  0.2  726  290    +0.9     
21 22.10.21 220 (ЮЗ) н/о  дымка{ливн. осадки}  10/10 600 м кучево-дожд. 
[Cb cap]
+2.8 +2.3 97 -1  1014.8  -1  725  289           
00 23.10.21 220 (ЮЗ) н/о    10/10 600 м 
[Sc]
+3.8 +2.8 93 +1  1013.8  -0.8  724  287           
03 23.10.21 210 (ЮЗ) 20000 м    10/6 600 м верхняя 
[Sc|Cs]
+2.6 +1.3 91 -1  1015.2  1.1  725  289           
06 23.10.21 220 (ЮЗ) 10{15}  20000 м    10/10 600 м 
[St]
+5.9 +3.6 85 +2  1015.4  0.8  726  286  +0.7       
09 23.10.21 240 (ЮЗ) 20000 м    10/10 600 м 
[Sc]
+9.8 +5.3 74 +8  1015.2  0.5  726  281           
12 23.10.21 230 (ЮЗ) 20000 м    10/10 600 м 
[Sc]
+10.2 +5.7 74 +8  1016  0.8  727  281           
15 23.10.21 230 (ЮЗ) н/о    10/10 600 м 
[Sc]
+10.5 +5.8 73 +9  1017.5  1.5  728  281    +10.6       
18 23.10.21 270 (З) н/о    10/10 600 м 
[Sc]
+10.4 +6.6 77 +9  1018.8  1.2  729  282    +10.6       
21 23.10.21 220 (ЮЗ) н/о    10/10 600 м 
[Sc]
+9.3 +6.8 84 +9  1020.2  1.2  730  283           
00 24.10.21 200 (Ю) н/о    10/10 600 м 
[Sc]
+7.7 +6.8 94 +8  1020.5  730  285           
03 24.10.21 230 (ЮЗ) 2000 м  дымка  10/10 300 м 
[St]
+7.6 +7 96 +6  1021.3  0.7  730  285           
06 24.10.21 220 (ЮЗ) 4000 м  дымка  10/10 300 м 
[St]
+8.1 +6.8 91 +7  1021.6  0.4  730  285  +7.3         
09 24.10.21 230 (ЮЗ) 20000 м    9/9 600 м 
[Sc]
+13.2 +6.4 63 +12  1019.7  -1  730  279           
12 24.10.21 220 (ЮЗ) 6{17}  20000 м    9/8 600 м верхняя 
[Sc|Ci sp]
+11.9 +1.8 50 +11  1019.4  -0.5  729  281           
15 24.10.21 190 (Ю) н/о    8/3 600 м верхняя 
[Sc|Ci sp]
+5.7 -2.8 54 +5  1020.2  -0.3  729  288    +13.7       
18 24.10.21 190 (Ю) н/о    10/3 600 м верхняя 
[Sc|Ci]
+1.9 -3 70 1019.9  -1  728  292    +13.7       
21 24.10.21 210 (ЮЗ) н/о    8/0 верхняя 
[Ci]
+1.2 -3.6 70 +1  1018.7  -1.2  727  292           
00 25.10.21 210 (ЮЗ) н/о    6/0 верхняя 
[Ci]
+0 -4.3 73 +1  1018.4  -0.5  727  293           
03 25.10.21 230 (ЮЗ) 20000 м    10/4 600 м верхняя 
[Sc|Cs]
-1.8 -3.7 87 -1  1019.2  0.4  727  295           
06 25.10.21 180 (Ю) 20000 м    10/0 средняя, верхняя 
[Ac cast|Cs]
+5.1 -2.4 58 +5  1017.8  -0.1  727  288  -2.1         
09 25.10.21 220 (ЮЗ) 20000 м    10/0 средняя, верхняя 
[Ac trans|Cs]
+11.9 -1.4 40 +12  1016  -0.6  727  281           
12 25.10.21 220 (ЮЗ) 20000 м    10/0 средняя, верхняя 
[Ac lent|Cs]
+11.4 -2.2 39 +11  1015.3  -0.8  726  281           
Время (UTC), дата Ветер
(°,м/с) 
Видим.   Явления Облачность Т
(°С)
Тd
(°С)
f(%) Тe
(°С)
Pmin
(гПа)
dP
(гПа)
Po
(мм)
O2
(г/м3)
Тmin Tmax R s Состояние
почвы

Для получения пояснительной информации подведите курсор к названию столбца.

ПОГОДА Балкашино - архив

Всё, что Вы хотите узнать о погоде Балкашино - удобно и подробно!

Выберите нужную дату (начиная с 1 января 2019* года) и нажмите кнопку "Найти".
Будут отображены архивные сводки погоды по пункту Балкашино, начиная с указанной даты.


Отображать данные в формате CSV (для использования в таблицах Excel)


Внимание! Наш архив погоды предназначен исключительно для личного некоммерческого использования в познавательных целях. Если Вам необходимы официальные справки о состоянии погоды (для производственных, юридических, коммерческих и т.п. целей), обращайтесь в органы Росгидромета.

*Примечание: данная дата относится к архиву по метеостанциям СССР (Россия, СНГ, Балтия).
Архив по метеостанциям Зарубежной Европы и Азии (кроме Китая) хранится 10 дней, по другим регионам земного шара (Китай, Африка, Америка, Австралия, Океания) - 1 день.

Балкашино - район местоположения метеостанции


Название, широта, долгота, высота метеостанции:
Балкашино 52.5°ш. 68.8°д. 398 м над ур. моря [Казахстан]

Дополнительная информация

В oтличие oт бoльшинства пoгoдных сайтoв мы публикуем пoдрoбную метеoинфoрмацию в детальнoм прoфессиoнальнoм фoрмате.

Характеристики температуры и влажнoсти вoздуха измеряются на высoте 2 м в тени вдали oт зданий и деревьев.
Скoрoсть ветра измеряется на высoте 10 м (на урoвне рoста челoвека скoрoсть ветра ниже в 1.5-2 раза). Если метеoстанция нахoдится в гoрoде или в лесу, тo скoрoсть ветра занижена на 2-4 м/с пo сравнению с oткрытым местoм. Скoрoсть ветра над акватoриями крупных рек и oзёр, а также на вершинах хoлмoв на 2-5 м/с выше, чем в oбычных услoвиях.
Атмoсфернoе давление в разных тoчках местнoсти мoжет значительнo oтличаться oт давления на метеoстанции, в зависимoсти oт услoвий рельефа (при пoдъёме на 10 м давление пoнижается примернo на 1 мм рт.ст.).